| time (UTC) | temp F | wind direction | speed MPH | gust MPH | rain 1hr in | rain 24hr in | rain mn in | humidity % | barometer mb |
| 20260509151519 | 78 | 331 | 0.0 | 1.0 | 0.00 | 0.06 | 0.00 | 92 | 1009.8 |
| 20260509150057 | 77 | 331 | 0.0 | 3.0 | 0.00 | 0.06 | 0.00 | 92 | 1009.7 |
| 20260509144535 | 77 | 294 | 3.0 | 5.0 | 0.00 | 0.06 | 0.00 | 94 | 1009.5 |
| 20260509143004 | 76 | 169 | 0.0 | 2.0 | 0.00 | 0.06 | 0.00 | 95 | 1009.3 |
| 20260509141551 | 76 | 141 | 3.0 | 6.0 | 0.00 | 0.06 | 0.00 | 95 | 1009.0 |
| 20260509140022 | 76 | 170 | 2.0 | 5.0 | 0.00 | 0.06 | 0.00 | 96 | 1009.0 |
| 20260509134601 | 76 | 200 | 1.0 | 5.0 | 0.00 | 0.06 | 0.00 | 96 | 1009.2 |
| 20260509133034 | 75 | 240 | 2.0 | 4.0 | 0.00 | 0.06 | 0.00 | 97 | 1009.8 |
| 20260509131504 | 75 | 230 | 0.0 | 0.0 | 0.00 | 0.06 | 0.00 | 97 | 1009.9 |
| 20260509130047 | 75 | 186 | 1.0 | 3.0 | 0.00 | 0.06 | 0.00 | 97 | 1009.9 |
| 20260509124519 | 75 | 176 | 0.0 | 2.0 | 0.00 | 0.06 | 0.00 | 97 | 1009.5 |
| 20260509123108 | 74 | 82 | 0.0 | 1.0 | 0.00 | 0.06 | 0.00 | 97 | 1009.6 |
| 20260509121541 | 74 | 94 | 0.0 | 3.0 | 0.00 | 0.06 | 0.00 | 96 | 1009.4 |
| 20260509120015 | 74 | 94 | 0.0 | 4.0 | 0.00 | 0.06 | 0.00 | 96 | 1009.1 |
| 20260509114556 | 74 | 330 | 0.0 | 1.0 | 0.00 | 0.06 | 0.00 | 96 | 1009.2 |
| 20260509113021 | 74 | 330 | 0.0 | 3.0 | 0.00 | 0.06 | 0.00 | 96 | 1009.9 |
| 20260509111602 | 75 | 311 | 3.0 | 4.0 | 0.00 | 0.06 | 0.00 | 96 | 1009.4 |
| 20260509110033 | 75 | 161 | 0.0 | 2.0 | 0.00 | 0.06 | 0.00 | 96 | 1009.2 |
| 20260509104503 | 75 | 161 | 0.0 | 0.0 | 0.00 | 0.06 | 0.00 | 96 | 1008.8 |
| 20260509103047 | 75 | 161 | 1.0 | 4.0 | 0.00 | 0.06 | 0.00 | 96 | 1008.9 |
| 20260509101522 | 75 | 161 | 0.0 | 3.0 | 0.00 | 0.06 | 0.00 | 96 | 1008.8 |
| 20260509100111 | 74 | 161 | 0.0 | 0.0 | 0.00 | 0.06 | 0.00 | 96 | 1008.8 |
| 20260509094614 | 75 | 161 | 0.0 | 0.0 | 0.00 | 0.06 | 0.00 | 96 | 1008.7 |
| 20260509093035 | 75 | 161 | 0.0 | 2.0 | 0.00 | 0.06 | 0.00 | 96 | 1008.7 |
| 20260509091528 | 75 | 161 | 0.0 | 3.0 | 0.00 | 0.06 | 0.00 | 96 | 1008.8 |
| 20260509084531 | 75 | 100 | 0.0 | 0.0 | 0.00 | 0.06 | 0.00 | 95 | 1008.6 |
| 20260509083109 | 75 | 99 | 0.0 | 2.0 | 0.00 | 0.06 | 0.00 | 95 | 1008.4 |
| 20260509081536 | 75 | 98 | 0.0 | 3.0 | 0.00 | 0.06 | 0.00 | 95 | 1008.8 |
| 20260509080008 | 75 | 142 | 2.0 | 6.0 | 0.00 | 0.06 | 0.00 | 95 | 1008.6 |
| 20260509074545 | 75 | 158 | 2.0 | 5.0 | 0.00 | 0.06 | 0.00 | 95 | 1008.6 |
| 20260509073035 | 75 | 159 | 1.0 | 7.0 | 0.00 | 0.06 | 0.00 | 95 | 1009.0 |
| 20260509071555 | 75 | 104 | 2.0 | 7.0 | 0.00 | 0.06 | 0.00 | 95 | 1009.2 |
| 20260509070024 | 75 | 138 | 2.0 | 6.0 | 0.00 | 0.06 | 0.00 | 95 | 1009.2 |
| 20260509064608 | 75 | 160 | 1.0 | 4.0 | 0.00 | 0.06 | 0.00 | 95 | 1009.1 |
| 20260509063035 | 75 | 148 | 0.0 | 8.0 | 0.00 | 0.06 | 0.00 | 95 | 1009.2 |
| 20260509061510 | 75 | 141 | 2.0 | 4.0 | 0.00 | 0.06 | 0.00 | 95 | 1009.2 |
| 20260509060052 | 75 | 144 | 1.0 | 4.0 | 0.00 | 0.06 | 0.00 | 95 | 1009.3 |
| 20260509054529 | 75 | 149 | 0.0 | 0.0 | 0.00 | 0.06 | 0.00 | 95 | 1009.4 |
| 20260509053105 | 75 | 111 | 0.0 | 0.0 | 0.00 | 0.06 | 0.00 | 95 | 1009.5 |
| 20260509051538 | 74 | 79 | 0.0 | 0.0 | 0.00 | 0.06 | 0.00 | 95 | 1009.5 |
| 20260509050011 | 74 | 80 | 0.0 | 0.0 | 0.00 | 0.06 | 0.00 | 95 | 1009.6 |
| 20260509044546 | 74 | 80 | 0.0 | 0.0 | 0.00 | 0.06 | 0.06 | 95 | 1009.7 |
| 20260509043034 | 74 | 80 | 0.0 | 0.0 | 0.00 | 0.06 | 0.06 | 95 | 1009.6 |
| 20260509041558 | 74 | 80 | 0.0 | 0.0 | 0.00 | 0.06 | 0.06 | 95 | 1009.7 |
| 20260509040028 | 74 | 80 | 0.0 | 0.0 | 0.00 | 0.06 | 0.06 | 95 | 1009.3 |
| 20260509034606 | 73 | 76 | 0.0 | 0.0 | 0.00 | 0.06 | 0.06 | 95 | 1009.4 |
| 20260509033036 | 73 | 105 | 0.0 | 2.0 | 0.00 | 0.06 | 0.06 | 94 | 1009.3 |
| 20260509031508 | 74 | 105 | 2.0 | 5.0 | 0.00 | 0.06 | 0.06 | 94 | 1009.2 |
| 20260509030050 | 74 | 77 | 1.0 | 4.0 | 0.00 | 0.06 | 0.06 | 94 | 1009.3 |
| 20260509024520 | 74 | 90 | 2.0 | 6.0 | 0.00 | 0.06 | 0.06 | 94 | 1008.9 |
| 20260509023100 | 74 | 75 | 1.0 | 5.0 | 0.00 | 0.06 | 0.06 | 93 | 1009.0 |
| 20260509021531 | 74 | 40 | 1.0 | 6.0 | 0.00 | 0.06 | 0.06 | 93 | 1008.6 |
| 20260509020111 | 74 | 84 | 1.0 | 7.0 | 0.00 | 0.06 | 0.06 | 93 | 1008.5 |
| 20260509014539 | 74 | 68 | 3.0 | 5.0 | 0.00 | 0.06 | 0.06 | 93 | 1008.4 |
| 20260509013035 | 74 | 89 | 0.0 | 5.0 | 0.00 | 0.06 | 0.06 | 93 | 1008.5 |
| 20260509011556 | 74 | 97 | 2.0 | 5.0 | 0.00 | 0.06 | 0.06 | 93 | 1008.4 |
| 20260509010026 | 74 | 145 | 2.0 | 7.0 | 0.00 | 0.06 | 0.06 | 92 | 1008.5 |
| 20260509004627 | 74 | 112 | 2.0 | 7.0 | 0.00 | 0.06 | 0.06 | 92 | 1008.3 |
| 20260509003046 | 74 | 94 | 3.0 | 8.0 | 0.00 | 0.06 | 0.06 | 92 | 1008.2 |
| 20260509001520 | 74 | 70 | 4.0 | 9.0 | 0.00 | 0.06 | 0.06 | 92 | 1008.3 |
| 20260508234527 | 74 | 82 | 3.0 | 7.0 | 0.01 | 0.06 | 0.06 | 92 | 1008.4 |
| 20260508233143 | 74 | 91 | 3.0 | 6.0 | 0.01 | 0.06 | 0.06 | 92 | 1008.7 |
| 20260508231543 | 74 | 101 | 0.0 | 4.0 | 0.01 | 0.06 | 0.06 | 92 | 1008.6 |
| 20260508230032 | 74 | 76 | 0.0 | 3.0 | 0.01 | 0.06 | 0.06 | 92 | 1008.5 |
| 20260508224555 | 74 | 94 | 3.0 | 6.0 | 0.00 | 0.05 | 0.05 | 92 | 1008.4 |
| 20260508223024 | 74 | 93 | 2.0 | 7.0 | 0.00 | 0.05 | 0.05 | 92 | 1008.5 |
| 20260508221601 | 73 | 86 | 4.0 | 8.0 | 0.00 | 0.05 | 0.05 | 93 | 1008.6 |
| 20260508220028 | 73 | 85 | 1.0 | 6.0 | 0.00 | 0.05 | 0.05 | 94 | 1008.6 |
| 20260508214607 | 73 | 105 | 4.0 | 7.0 | 0.00 | 0.05 | 0.05 | 94 | 1008.7 |
| 20260508213037 | 72 | 94 | 2.0 | 6.0 | 0.00 | 0.05 | 0.05 | 95 | 1008.9 |
| 20260508211504 | 72 | 99 | 2.0 | 7.0 | 0.00 | 0.05 | 0.05 | 95 | 1009.1 |
| 20260508210105 | 71 | 88 | 2.0 | 6.0 | 0.00 | 0.05 | 0.05 | 96 | 1009.0 |
| 20260508204518 | 71 | 99 | 2.0 | 5.0 | 0.00 | 0.05 | 0.05 | 96 | 1009.1 |
| 20260508203059 | 70 | 96 | 3.0 | 6.0 | 0.00 | 0.05 | 0.05 | 96 | 1009.2 |
| 20260508201536 | 70 | 86 | 2.0 | 6.0 | 0.00 | 0.05 | 0.05 | 96 | 1009.4 |
| 20260508200009 | 70 | 68 | 1.0 | 5.0 | 0.00 | 0.05 | 0.05 | 97 | 1009.6 |
| 20260508194551 | 69 | 101 | 2.0 | 6.0 | 0.00 | 0.05 | 0.05 | 96 | 1010.0 |
| 20260508193018 | 69 | 89 | 1.0 | 5.0 | 0.00 | 0.05 | 0.05 | 96 | 1010.2 |
| 20260508191602 | 69 | 64 | 3.0 | 5.0 | 0.00 | 0.05 | 0.05 | 96 | 1010.3 |
| 20260508190036 | 69 | 54 | 1.0 | 5.0 | 0.01 | 0.05 | 0.05 | 96 | 1010.3 |
| 20260508184505 | 68 | 30 | 1.0 | 5.0 | 0.02 | 0.05 | 0.05 | 96 | 1010.3 |
| 20260508183045 | 68 | 79 | 3.0 | 6.0 | 0.02 | 0.05 | 0.05 | 96 | 1010.3 |
| 20260508181532 | 68 | 98 | 4.0 | 11.0 | 0.02 | 0.05 | 0.05 | 96 | 1010.6 |
| 20260508180053 | 67 | 117 | 3.0 | 8.0 | 0.01 | 0.04 | 0.04 | 96 | 1010.8 |
| 20260508174525 | 67 | 65 | 4.0 | 7.0 | 0.00 | 0.03 | 0.03 | 95 | 1011.1 |
| 20260508173107 | 67 | 10 | 1.0 | 5.0 | 0.01 | 0.03 | 0.03 | 95 | 1011.4 |
| 20260508171534 | 67 | 86 | 1.0 | 9.0 | 0.01 | 0.03 | 0.03 | 95 | 1011.5 |
| 20260508170014 | 67 | 102 | 3.0 | 6.0 | 0.02 | 0.03 | 0.03 | 94 | 1011.3 |
| 20260508164601 | 67 | 68 | 2.0 | 7.0 | 0.02 | 0.03 | 0.03 | 94 | 1011.7 |
| 20260508163021 | 67 | 96 | 3.0 | 9.0 | 0.01 | 0.02 | 0.02 | 94 | 1011.9 |
| 20260508161604 | 67 | 79 | 4.0 | 8.0 | 0.02 | 0.02 | 0.02 | 94 | 1012.2 |
| 20260508160033 | 67 | 41 | 3.0 | 6.0 | 0.01 | 0.01 | 0.01 | 93 | 1012.5 |
| 20260508154612 | 67 | 1 | 2.0 | 7.0 | 0.01 | 0.01 | 0.01 | 93 | 1012.7 |
| 20260508153042 | 67 | 42 | 4.0 | 9.0 | 0.01 | 0.01 | 0.01 | 92 | 1012.3 |